Погода в Великом Новгороде

Россия / Новгородская область     58°31′22″N   31°16′11″E
темп.,
°C
ветер,
м/с
пор.,
м/с
влажн.,
%
обл.,
%
осадки,
мм/ч
давл.,
гПа
погр.,
м
8 марта, пн
пн800:00−6сз61287100 0.1 9951098
03:00−7ссз51085100 0.1 999679
06:00−8с51185100 0.1 1002702
09:00−10с51183100 0.1 1005642
12:00−8с5975100 0.0 1008763
15:00−6с586587 0.0 1011909
18:00−8с487226 0.0 1013677
21:00−11с398613 0.0 1015426
9 марта, вт
вт900:00−12ссз25940 0.0 1016244
03:00−13ссз25950 0.0 1018213
06:00−14с25950 0.0 1018229
09:00−14ссв23870 0.0 1020258
12:00−11ссв126645 0.0 1021536
15:00−9св125770 0.0 1021716
18:00−10всв2366100 0.0 1021550
21:00−13всв4778100 0.0 1023377
10 марта, ср
ср1000:00−14в4882100 0.0 1024364
03:00−15в4782100 0.0 1025392
06:00−17в478135 0.0 1027315
09:00−17в477517 0.0 1028266
12:00−12в35580 0.0 1029399
15:00−9в365213 0.0 1028761
18:00−10в25675 0.0 1028161
21:00−12в368237 0.0 1029148
11 марта, чт
чт1100:00−13вюв368467 0.0 1029166
03:00−14юв388145 0.0 1028244
06:00−15юв497560 0.0 1027318
09:00−14юв5106768 0.0 1026390
12:00−11ююв51076100 0.1 1024502
15:00−7ююв51069100 0.1 1022550
18:00−6ююв5117749 0.0 1020548
21:00−8ююв6128748 0.0 1019503
12 марта, пт
пт1200:00−9ююв6128891 0.0 1017497
03:00−10юв6138891 0.0 1014506
06:00−10юв6148190 0.0 1011512
09:00−9юв7147495 0.0 1008720
12:00−8юв81488100 0.4 1004822
15:00−6юв81385100 0.9 1002921
18:00−5вюв71387100 0.5 999854
21:00−4вюв51294100 1.1 998645